This demonstration page uses our WeatherBlox Daily Observations layout. Learn more.

Left ArrowRight Arrow

39.01783, -85.05884

Hourly Observations for May 18, 2018

Temp ( °F °C ) Dew Point ( °F °C ) Humidity (%) Winds ( mph kmh ) Pressure ( in mb ) Visibility ( mi km ) Precip ( " mm )
12:52 am 00:52 Partly Cloudy 70 21.1 64 17.8 82 82 NE 12 19 29.93 1014 10 16 0.00 0.00
1:52 am 01:52 Mostly Clear 69 20.6 64 17.8 84 84 NE 13 20 29.93 1013 10 16 0.00 0.00
2:52 am 02:52 Cloudy 69 20.6 64 17.8 84 84 NE 10 17 29.91 1013 9 14 0.00 0.00
3:52 am 03:52 Partly Cloudy 67 19.4 60 15.6 79 79 NE 13 20 29.89 1012 10 16 0.00 0.00
4:52 am 04:52 Partly Cloudy 66 18.9 59 15 78 78 NE 13 20 29.89 1012 10 16 0.00 0.00
5:24 am 05:24 Cloudy 67 19.4 59 15 76 76 NE 10 17 29.88 1012 10 16 0.00 0.00
5:52 am 05:52 Cloudy 67 19.4 59 15 76 76 NE 10 17 29.90 1013 10 16 0.00 0.00
6:52 am 06:52 Cloudy 67 19.4 60 15.6 79 79 NNE 8 13 29.91 1013 10 16 0.00 0.00
7:52 am 07:52 Cloudy 68 20 62 16.7 81 81 ENE 6 9 29.93 1013 10 16 0.00 0.00
8:52 am 08:52 Cloudy 69 20.6 63 17.2 81 81 ENE 10 17 29.93 1014 10 16 0.00 0.00
9:52 am 09:52 Cloudy 70 21.1 63 17.2 79 79 E 13 20 29.93 1014 10 16 0.00 0.00
10:52 am 10:52 Cloudy 71 21.7 64 17.8 79 79 E 13 20 29.93 1014 10 16 0.00 0.03
11:52 am 11:52 Cloudy 71 21.7 64 17.8 79 79 ESE 9 15 29.93 1014 10 16 0.00 0.00
12:52 pm 12:52 Cloudy 72 22.2 65 18.3 79 79 ESE 10 17 29.93 1013 10 16 0.00 0.00
1:52 pm 13:52 Mostly Cloudy 74 23.3 65 18.3 74 74 E 12 19 29.91 1013 10 16 0.00 0.03
2:52 pm 14:52 Cloudy 75 23.9 66 18.9 74 74 E 12 19 29.90 1012 10 16 0.00 0.00
3:52 pm 15:52 Cloudy 76 24.4 66 18.9 72 72 ENE 12 19 29.88 1012 10 16 0.00 0.00
4:22 pm 16:22 Cloudy 77 25 66 18.9 69 69 ENE 17 28 29.85 1011 10 16 0.00 0.00
4:52 pm 16:52 Cloudy 76 24.4 65 18.3 69 69 ENE 16 26 29.86 1011 10 16 0.00 0.00
5:52 pm 17:52 Cloudy with Light Rain 72 22.2 67 19.4 84 84 ENE 14 22 29.86 1011 5 8 0.07 1.78
6:35 pm 18:35 Cloudy with Nearby Thunderstorms 71 21.7 68 20 90 90 ENE 14 22 29.85 1011 4 6 0.05 1.27
6:49 pm 18:49 Cloudy with Rain 72 22 68 20 88 88 ENE 13 20 29.85 1011 3 5 0.10 2.54
6:52 pm 18:52 Cloudy with Rain 71 21.7 67 19.4 87 87 ENE 14 22 29.86 1011 3 5 0.10 2.54
7:05 pm 19:05 Cloudy with Nearby Thunderstorms 70 21.1 68 20 93 93 ENE 13 20 29.85 1011 3 5 0.03 0.76
7:17 pm 19:17 Cloudy with Thunderstorms 70 21.1 69 20.6 97 97 ENE 9 15 29.85 1011 3 5 0.05 1.27
7:52 pm 19:52 Cloudy with Thunderstorms 71 21.7 69 20.6 94 94 ENE 8 13 29.86 1011 4 6 0.08 2.03
8:18 pm 20:18 Cloudy with Thunderstorms 70 21.1 69 20.6 97 97 ENE 9 15 29.88 1012 4 6 0.05 1.27
8:33 pm 20:33 Cloudy with Thunderstorms 70 21.1 69 20.6 97 97 E 7 11 29.88 1012 10 16 0.06 1.52
8:52 pm 20:52 Cloudy with Thunderstorms 70 21.1 68 20 93 93 E 12 19 29.87 1011 10 16 0.06 1.52
9:28 pm 21:28 Cloudy with Thunderstorms 70 21.1 68 20 93 93 VRB 3 6 29.88 1012 10 16 0.01 0.25
9:52 pm 21:52 Cloudy with Thunderstorms 66 18.9 64 17.8 93 93 S 6 9 29.89 1012 5 8 0.04 1.02
9:59 pm 21:59 Cloudy with Light Rain 66 18.9 64 17.8 93 93 SSE 6 9 29.88 1012 10 16 0.00 0.03
10:20 pm 22:20 Cloudy with Nearby Thunderstorms 68 20 67 19.4 96 96 SE 7 11 29.88 1012 8 13 0.02 0.51
10:22 pm 22:22 Mostly Cloudy with Nearby Thunderstorms 68 20 67 19.4 96 96 SE 7 11 29.88 1012 8 13 0.02 0.51
10:35 pm 22:35 Cloudy with Heavy Rain 68 20 67 19.4 96 96 ESE 8 13 29.88 1012 4 6 0.06 1.52
10:52 pm 22:52 Cloudy with Light Rain 69 20.6 68 20 96 96 ESE 9 15 29.87 1011 8 13 0.07 1.78
11:37 pm 23:37 Cloudy 70 21.1 69 20.6 97 97 ESE 10 17 29.85 1011 10 16 0.01 0.25
11:52 pm 23:52 Cloudy 70 21.1 69 20.6 97 97 ESE 12 19 29.85 1011 10 16 0.01 0.25

Powered by AerisWeather